EW0734 Weather Reports


time (UTC)temp
C
wind
direction
speed
KPH
gust
KPH
rain 1hr
cm
rain 24hr
cm
rain mn
cm
humidity
%
barometer
mb
20260904054029 22 0.0 0.0 0.00 0.00 0.00 91 1012.6
20260904053029 22 0.0 0.0 0.00 0.00 0.00 92 1012.9
20260904052030 23 0.0 0.0 0.00 0.00 0.00 92 1013.6
20260904051029 23 0.0 0.0 0.00 0.00 0.00 90 1014.2
20260904050030 25 0.0 0.0 0.00 0.00 0.00 86 1014.6
20260904045028 25 0.0 1.6 0.00 0.00 0.00 84 1014.7
20260904044108 26 0.0 0.0 0.00 0.00 0.00 85 1014.7
20260904043028 26 0.0 0.0 0.00 0.00 0.00 92 1013.8
20260904042028 26 0.0 0.0 0.00 0.00 0.00 85 1012.7
20260904041028 26 0.0 0.0 0.00 0.00 0.00 83 1012.8
20260904040028 26 0.0 0.0 0.00 0.00 0.00 83 1012.8
20260904035028 26 0.0 0.0 0.00 0.00 0.00 83 1012.6
20260904034029 26 0.0 0.0 0.00 0.00 0.00 85 1012.4
20260904033029 26 0.0 0.0 0.00 0.00 0.00 84 1012.3
20260904032049 26 0.0 0.0 0.00 0.00 0.00 84 1012.1
20260904031029 26 0.0 0.0 0.00 0.00 0.00 86 1012.0
20260904030049 26 0.0 0.0 0.00 0.00 0.00 86 1012.1
20260904025029 26 0.0 0.0 0.00 0.00 0.00 87 1012.2
20260904024028 26 0.0 0.0 0.00 0.00 0.00 88 1012.2
20260904023109 26 0.0 0.0 0.00 0.00 0.00 89 1012.3
20260904022029 26 0.0 0.0 0.00 0.00 0.00 88 1012.3
20260904021029 26 0.0 0.0 0.00 0.00 0.00 89 1012.5
20260904020048 26 0.0 0.0 0.00 0.00 0.00 90 1012.6
20260904015028 26 0.0 0.0 0.00 0.00 0.00 91 1012.5
20260904014028 26 0.0 0.0 0.00 0.00 0.00 91 1012.3
20260904013028 26 0.0 0.0 0.00 0.00 0.00 91 1012.4
20260904012028 26 0.0 0.0 0.00 0.00 0.00 92 1012.5
20260904011048 26 0.0 0.0 0.00 0.00 0.00 92 1012.7
20260904010028 26 0.0 0.0 0.00 0.00 0.00 92 1012.9
20260904005028 26 0.0 0.0 0.00 0.00 0.00 92 1013.0
20260904004028 26 0.0 0.0 0.00 0.00 0.00 92 1013.2
20260904003050 27 0.0 0.0 0.00 0.00 0.00 92 1013.1
20260904002028 27 0.0 0.0 0.00 0.00 0.00 91 1013.0
20260904001028 27 0.0 0.0 0.00 0.00 0.00 90 1013.0
20260904000028 27 0.0 0.0 0.00 0.00 0.00 90 1012.9
20260903235028 27 0.0 0.0 0.00 0.00 0.00 88 1012.8
20260903234029 28 0.0 0.0 0.00 0.00 0.00 88 1012.5
20260903233028 28 0.0 0.0 0.00 0.00 0.00 86 1012.7
20260903232029 28 0.0 0.0 0.00 0.00 0.00 85 1012.6
20260903231028 29 0.0 0.0 0.00 0.00 0.00 83 1012.6
20260903230029 30 0.0 0.0 0.00 0.00 0.00 82 1012.4
20260903225028 30 0.0 0.0 0.00 0.00 0.00 80 1012.3
20260903224032 30 0.0 0.0 0.00 0.00 0.00 78 1012.4
20260903223028 30 0.0 0.0 0.00 0.00 0.00 78 1012.2
20260903222028 31 0.0 0.0 0.00 0.00 0.00 79 1012.1
20260903221048 31 0.0 0.0 0.00 0.00 0.00 77 1012.1
20260903220029 31 0.0 0.0 0.00 0.00 0.00 75 1012.3
20260903215028 31 0.0 0.0 0.00 0.00 0.00 74 1012.3
20260903214028 31 0.0 0.0 0.00 0.00 0.00 75 1012.5
20260903213027 31 0.0 0.0 0.00 0.00 0.00 75 1012.5
20260903212028 31 0.0 0.0 0.00 0.00 0.00 74 1012.5
20260903211033 31 0.0 0.0 0.00 0.00 0.00 73 1012.7
20260903210027 31 0.0 0.0 0.00 0.00 0.00 73 1012.8
20260903205028 31 0.0 0.0 0.00 0.00 0.00 71 1012.8
20260903204028 32 0.0 0.0 0.00 0.00 0.00 70 1012.9
20260903203028 32 0.0 0.0 0.00 0.00 0.00 70 1012.9
20260903202029 32 0.0 0.0 0.00 0.00 0.00 71 1013.2
20260903201050 31 0.0 0.0 0.00 0.00 0.00 72 1013.3
20260903200050 31 0.0 0.0 0.00 0.00 0.00 75 1013.5
20260903195030 31 0.0 0.0 0.00 0.00 0.00 75 1013.6
20260903194030 31 0.0 0.0 0.00 0.00 0.00 76 1013.6
20260903193030 31 0.0 0.0 0.00 0.00 0.00 78 1013.8
20260903192049 31 0.0 0.0 0.00 0.00 0.00 78 1014.0
20260903191030 31 0.0 0.0 0.00 0.00 0.00 79 1013.9
20260903190030 31 0.0 0.0 0.00 0.00 0.00 79 1013.9
20260903185030 31 0.0 0.0 0.00 0.00 0.00 79 1014.1
20260903184030 31 0.0 0.0 0.00 0.00 0.00 78 1014.3
20260903183050 30 0.0 0.0 0.00 0.00 0.00 76 1014.3
20260903182029 31 0.0 0.0 0.00 0.00 0.00 78 1014.6
20260903181030 31 0.0 0.0 0.00 0.00 0.00 77 1014.7
20260903180029 31 0.0 0.0 0.00 0.00 0.00 76 1014.9
20260903175030 31 0.0 0.0 0.00 0.00 0.00 77 1014.9
20260903174530 31 0.0 0.0 0.00 0.00 0.00 76 1014.9
20260903173529 31 0.0 0.0 0.00 0.00 0.00 75 1015.1
20260903172530 31 0.0 0.0 0.00 0.00 0.00 76 1015.4
20260903171530 30 0.0 0.0 0.00 0.00 0.00 79 1015.6
20260903170529 30 0.0 0.0 0.00 0.00 0.00 80 1015.8
20260903165529 29 0.0 0.0 0.00 0.00 0.00 81 1015.9
20260903164530 29 0.0 0.0 0.00 0.00 0.00 80 1015.7
20260903163529 29 0.0 0.0 0.00 0.00 0.00 80 1015.7
20260903162529 29 0.0 0.0 0.00 0.00 0.00 80 1015.9
20260903161529 28 0.0 0.0 0.00 0.00 0.00 85 1016.2
20260903160528 28 0.0 0.0 0.00 0.00 0.00 84 1016.2
20260903155529 27 0.0 0.0 0.00 0.00 0.00 88 1016.2
20260903154530 26 0.0 0.0 0.00 0.00 0.00 91 1016.4
20260903153529 25 0.0 0.0 0.00 0.00 0.00 91 1016.6
20260903152529 25 0.0 0.0 0.00 0.00 0.00 92 1016.6
20260903151529 25 0.0 0.0 0.00 0.00 0.00 92 1016.5
20260903150528 25 0.0 0.0 0.00 0.00 0.00 92 1016.3
20260903145529 25 0.0 0.0 0.00 0.00 0.00 91 1016.3
20260903144529 25 0.0 0.0 0.00 0.00 0.00 91 1016.1
20260903143529 24 0.0 0.0 0.00 0.00 0.00 89 1016.0
20260903142529 24 0.0 0.0 0.00 0.00 0.00 90 1016.2
20260903141530 24 0.0 0.0 0.00 0.00 0.00 89 1016.2
20260903140530 24 0.0 0.0 0.00 0.00 0.00 88 1016.2
20260903135630 23 0.0 0.0 0.00 0.00 0.00 86 1016.2
20260903134529 23 0.0 0.0 0.00 0.00 0.00 86 1016.1
20260903133529 23 0.0 0.0 0.00 0.00 0.00 83 1016.0
20260903132529 23 0.0 0.0 0.00 0.00 0.00 80 1016.3
20260903131529 23 0.0 0.0 0.00 0.00 0.00 81 1016.4
20260903130547 23 0.0 0.0 0.00 0.00 0.00 81 1016.6
20260903125529 23 0.0 0.0 0.00 0.00 0.00 70 1016.7
20260903124529 23 0.0 0.0 0.00 0.00 0.00 65 1016.7
20260903123529 23 0.0 0.0 0.00 0.00 0.00 67 1016.7
20260903122529 23 0.0 0.0 0.00 0.00 0.00 65 1016.5
20260903121549 23 0.0 0.0 0.00 0.00 0.00 53 1016.3
20260903120529 23 0.0 0.0 0.00 0.00 0.00 52 1016.1
20260903115529 23 0.0 0.0 0.00 0.00 0.00 51 1015.9
20260903114529 22 0.0 0.0 0.00 0.00 0.00 52 1015.9
20260903114129 -17 0.0 0.0 0.00 0.00 0.00
20260903113527 -17 0.0 0.0 0.00 0.00 0.00
20260903112528 -17 0.0 0.0 0.00 0.00 0.00
20260903112031 -17 0.0 0.0 0.00 0.00 0.00
20260903111626 -17 0.0 0.0 0.00 0.00 0.00
20260903111027 -17 0.0 0.0 0.00 0.00 0.00
20260903110029 -17 0.0 0.0 0.00 0.00 0.00
20260903105547 -17 0.0 0.0 0.00 0.00 0.00
20260903105122 -17 0.0 0.0 0.00 0.00 0.00
20260903104528 -17 0.0 0.0 0.00 0.00 0.00
20260903103527 -17 0.0 0.0 0.00 0.00 0.00
20260903103045 -17 0.0 0.0 0.00 0.00 0.00
20260903102620 -17 0.0 0.0 0.00 0.00 0.00
20260903102027 -17 0.0 0.0 0.00 0.00 0.00
20260903101027 -17 0.0 0.0 0.00 0.00 0.00
20260903100525 -17 0.0 0.0 0.00 0.00 0.00
20260903100120 -17 0.0 0.0 0.00 0.00 0.00
20260903095528 -17 0.0 0.0 0.00 0.00 0.00
20260903094547 -17 0.0 0.0 0.00 0.00 0.00
20260903094027 -17 0.0 0.0 0.00 0.00 0.00
20260903093622 -17 0.0 0.0 0.00 0.00 0.00
20260903093026 -17 0.0 0.0 0.00 0.00 0.00
20260903092027 -17 0.0 0.0 0.00 0.00 0.00
20260903091606 -17 0.0 0.0 0.00 0.00 0.00
20260903091122 -17 0.0 0.0 0.00 0.00 0.00
20260903090527 -17 0.0 0.0 0.00 0.00 0.00
20260903085527 -17 0.0 0.0 0.00 0.00 0.00
20260903085021 -17 0.0 0.0 0.00 0.00 0.00
20260903084617 -17 0.0 0.0 0.00 0.00 0.00
20260903084027 -17 0.0 0.0 0.00 0.00 0.00
20260903083032 -17 0.0 0.0 0.00 0.00 0.00
20260903082545 -17 0.0 0.0 0.00 0.00 0.00
20260903082037 -17 0.0 0.0 0.00 0.00 0.00
20260903081527 -17 0.0 0.0 0.00 0.00 0.00
20260903080526 -17 0.0 0.0 0.00 0.00 0.00
20260903080027 -17 0.0 0.0 0.00 0.00 0.00
20260903075621 -17 0.0 0.0 0.00 0.00 0.00
20260903075026 -17 0.0 0.0 0.00 0.00 0.00
20260903074026 -17 0.0 0.0 0.00 0.00 0.00
20260903073532 -17 0.0 0.0 0.00 0.00 0.00
20260903073009 -17 0.0 0.0 0.00 0.00 0.00
20260903072532 -17 0.0 0.0 0.00 0.00 0.00
20260903071552 -17 0.0 0.0 0.00 0.00 0.00
20260903071034 -17 0.0 0.0 0.00 0.00 0.00
20260903070509 -17 0.0 0.0 0.00 0.00 0.00
20260903070026 -17 0.0 0.0 0.00 0.00 0.00
20260903065027 -17 0.0 0.0 0.00 0.00 0.00
20260903064533 -17 0.0 0.0 0.00 0.00 0.00
20260903064125 -17 0.0 0.0 0.00 0.00 0.00
20260903063526 -17 0.0 0.0 0.00 0.00 0.00
20260903062526 -17 0.0 0.0 0.00 0.00 0.00
20260903062104 -17 0.0 0.0 0.00 0.00 0.00
20260903061617 -17 0.0 0.0 0.00 0.00 0.00
20260903061026 -17 0.0 0.0 0.00 0.00 0.00
20260903060027 -17 0.0 0.0 0.00 0.00 0.00
20260903055537 -17 0.0 0.0 0.00 0.00 0.00 78
20260903055006 21 0.0 0.0 0.00 0.00 0.00 78 1015.6